Simultaneous Nadir Overpasses (SNOs) Predictions

Prediction of SNOs between AQUA and METOP-B Satellite Orbit:

Table of predicted SNOs for the next 14.0 days since TLE Epoch: 3/27/2021
Index Date (AQUA) Time (AQUA) Lat,Lon (AQUA) SZA (AQUA ) Date (METOP-B) Time (METOP-B) Lat,Lon (METOP-B) SZA (METOP-B ) Distance(km) Time Diff (sec)
1 03/27/2021 18:36:12 -73.80, 75.25 109.07 03/27/2021 18:35:15 -73.80, 75.27 109.07 1.13 57
2 03/27/2021 19:25:41 73.86,-117.23 70.98 03/27/2021 19:25:54 73.85,-117.28 70.97 2.12 13
3 03/27/2021 20:15:17 -74.42, 49.12 108.43 03/27/2021 20:16:24 -74.41, 51.46 108.53 69.83 67
4 03/30/2021 14:10:27 -73.80, 141.70 110.18 03/30/2021 14:09:36 -73.79, 141.67 110.18 1.68 51
5 03/30/2021 14:59:56 73.86, -50.80 69.88 03/30/2021 15:00:14 73.89, -50.76 69.91 3.42 18
6 03/30/2021 15:49:36 -74.62, 115.07 109.32 03/30/2021 15:50:41 -74.60, 118.37 109.46 97.18 65
7 04/02/2021 09:44:42 -73.80,-151.87 111.27 04/02/2021 09:43:56 -73.83,-151.83 111.23 3.08 46
8 04/02/2021 10:34:11 73.87, 15.62 68.79 04/02/2021 10:34:35 73.88, 15.63 68.80 1.40 24
9 04/05/2021 05:18:56 -73.82, -85.46 112.33 04/05/2021 05:18:16 -73.82, -85.45 112.33 0.49 40
10 04/05/2021 06:08:25 73.88, 82.02 67.73 04/05/2021 06:08:55 73.87, 82.01 67.71 1.81 30
11 04/08/2021 00:53:11 -73.84, -19.07 113.38 04/08/2021 00:52:37 -73.80, -19.07 113.40 3.78 34
12 04/08/2021 01:42:40 73.91, 148.41 66.69 04/08/2021 01:43:15 73.90, 148.50 66.68 3.06 35



Historial Predications of SNOs between AQUA and METOP-B
